#datetime,building,power
2022-01-28T00:00:00,hld,7.78
2022-01-28T00:01:00,hld,7.78
2022-01-28T00:02:00,hld,7.81
2022-01-28T00:03:00,hld,7.82
2022-01-28T00:04:00,hld,7.80
2022-01-28T00:05:00,hld,8.34
2022-01-28T00:06:00,hld,7.66
2022-01-28T00:07:00,hld,8.29
2022-01-28T00:08:00,hld,7.53
2022-01-28T00:09:00,hld,7.52
2022-01-28T00:10:00,hld,7.52
2022-01-28T00:11:00,hld,7.51
2022-01-28T00:12:00,hld,7.51
2022-01-28T00:13:00,hld,7.43
2022-01-28T00:14:00,hld,7.37
2022-01-28T00:15:00,hld,7.42
2022-01-28T00:16:00,hld,7.53
2022-01-28T00:17:00,hld,7.43
2022-01-28T00:18:00,hld,7.43
2022-01-28T00:19:00,hld,7.46
2022-01-28T00:20:00,hld,7.47
2022-01-28T00:21:00,hld,7.50
2022-01-28T00:22:00,hld,7.75
2022-01-28T00:23:00,hld,7.71
2022-01-28T00:24:00,hld,7.91
2022-01-28T00:25:00,hld,7.91
2022-01-28T00:26:00,hld,7.80
2022-01-28T00:27:00,hld,7.77
2022-01-28T00:28:00,hld,7.78
2022-01-28T00:29:00,hld,7.78
2022-01-28T00:30:00,hld,7.76
2022-01-28T00:31:00,hld,9.25
2022-01-28T00:32:00,hld,7.81
2022-01-28T00:33:00,hld,7.79
2022-01-28T00:34:00,hld,7.81
2022-01-28T00:35:00,hld,7.77
2022-01-28T00:36:00,hld,8.44
2022-01-28T00:37:00,hld,7.77
2022-01-28T00:38:00,hld,7.66
2022-01-28T00:39:00,hld,7.65
2022-01-28T00:40:00,hld,7.65
2022-01-28T00:41:00,hld,7.67
2022-01-28T00:42:00,hld,7.66
2022-01-28T00:43:00,hld,7.34
2022-01-28T00:44:00,hld,7.33
2022-01-28T00:45:00,hld,7.33
2022-01-28T00:46:00,hld,7.33
2022-01-28T00:47:00,hld,7.35
2022-01-28T00:48:00,hld,6.87
2022-01-28T00:49:00,hld,6.63
2022-01-28T00:50:00,hld,6.20
2022-01-28T00:51:00,hld,6.23
2022-01-28T00:52:00,hld,6.27
2022-01-28T00:53:00,hld,6.26
2022-01-28T00:54:00,hld,6.25
2022-01-28T00:55:00,hld,6.10
2022-01-28T00:56:00,hld,6.09
2022-01-28T00:57:00,hld,6.10
2022-01-28T00:58:00,hld,6.38
2022-01-28T00:59:00,hld,6.01
2022-01-28T01:00:00,hld,6.01
2022-01-28T01:01:00,hld,6.02
2022-01-28T01:02:00,hld,6.00
2022-01-28T01:03:00,hld,6.01
2022-01-28T01:04:00,hld,6.00
2022-01-28T01:05:00,hld,6.01
2022-01-28T01:06:00,hld,6.00
2022-01-28T01:07:00,hld,6.14
2022-01-28T01:08:00,hld,6.23
2022-01-28T01:09:00,hld,6.22
2022-01-28T01:10:00,hld,6.22
2022-01-28T01:11:00,hld,6.22
2022-01-28T01:12:00,hld,6.23
2022-01-28T01:13:00,hld,6.25
2022-01-28T01:14:00,hld,6.22
2022-01-28T01:15:00,hld,6.21
2022-01-28T01:16:00,hld,6.35
2022-01-28T01:17:00,hld,6.36
2022-01-28T01:18:00,hld,6.35
2022-01-28T01:19:00,hld,6.33
2022-01-28T01:20:00,hld,6.27
2022-01-28T01:21:00,hld,6.29
2022-01-28T01:22:00,hld,6.28
2022-01-28T01:23:00,hld,6.25
2022-01-28T01:24:00,hld,6.00
2022-01-28T01:25:00,hld,10.15
2022-01-28T01:26:00,hld,10.13
2022-01-28T01:27:00,hld,10.13
2022-01-28T01:28:00,hld,10.11
2022-01-28T01:29:00,hld,10.13
2022-01-28T01:30:00,hld,10.10
2022-01-28T01:31:00,hld,10.09
2022-01-28T01:32:00,hld,5.98
2022-01-28T01:33:00,hld,6.00
2022-01-28T01:34:00,hld,6.04
2022-01-28T01:35:00,hld,5.98
2022-01-28T01:36:00,hld,5.99
2022-01-28T01:37:00,hld,5.99
2022-01-28T01:38:00,hld,6.00
2022-01-28T01:39:00,hld,6.54
2022-01-28T01:40:00,hld,6.66
2022-01-28T01:41:00,hld,6.07
2022-01-28T01:42:00,hld,6.26
2022-01-28T01:43:00,hld,6.23
2022-01-28T01:44:00,hld,6.29
2022-01-28T01:45:00,hld,6.26
2022-01-28T01:46:00,hld,6.27
2022-01-28T01:47:00,hld,6.35
2022-01-28T01:48:00,hld,6.34
2022-01-28T01:49:00,hld,6.32
2022-01-28T01:50:00,hld,6.33
2022-01-28T01:51:00,hld,6.30
2022-01-28T01:52:00,hld,6.32
2022-01-28T01:53:00,hld,6.26
2022-01-28T01:54:00,hld,7.00
2022-01-28T01:55:00,hld,8.57
2022-01-28T01:56:00,hld,8.72
2022-01-28T01:57:00,hld,8.77
2022-01-28T01:58:00,hld,8.76
2022-01-28T01:59:00,hld,8.78
2022-01-28T02:00:00,hld,8.77
2022-01-28T02:01:00,hld,8.87
2022-01-28T02:02:00,hld,8.92
2022-01-28T02:03:00,hld,9.37
2022-01-28T02:04:00,hld,8.91
2022-01-28T02:05:00,hld,8.93
2022-01-28T02:06:00,hld,8.88
2022-01-28T02:07:00,hld,9.04
2022-01-28T02:08:00,hld,8.96
2022-01-28T02:09:00,hld,8.96
2022-01-28T02:10:00,hld,8.95
2022-01-28T02:11:00,hld,8.98
2022-01-28T02:12:00,hld,8.96
2022-01-28T02:13:00,hld,8.93
2022-01-28T02:14:00,hld,8.94
2022-01-28T02:15:00,hld,8.81
2022-01-28T02:16:00,hld,8.82
2022-01-28T02:17:00,hld,8.71
2022-01-28T02:18:00,hld,8.67
2022-01-28T02:19:00,hld,8.71
2022-01-28T02:20:00,hld,8.71
2022-01-28T02:21:00,hld,8.71
2022-01-28T02:22:00,hld,9.38
2022-01-28T02:23:00,hld,8.84
2022-01-28T02:24:00,hld,8.89
2022-01-28T02:25:00,hld,9.02
2022-01-28T02:26:00,hld,10.54
2022-01-28T02:27:00,hld,9.09
2022-01-28T02:28:00,hld,9.09
2022-01-28T02:29:00,hld,9.06
2022-01-28T02:30:00,hld,9.03
2022-01-28T02:31:00,hld,9.04
2022-01-28T02:32:00,hld,9.20
2022-01-28T02:33:00,hld,9.02
2022-01-28T02:34:00,hld,9.07
2022-01-28T02:35:00,hld,8.95
2022-01-28T02:36:00,hld,8.59
2022-01-28T02:37:00,hld,8.62
2022-01-28T02:38:00,hld,8.60
2022-01-28T02:39:00,hld,8.58
2022-01-28T02:40:00,hld,8.52
2022-01-28T02:41:00,hld,8.03
2022-01-28T02:42:00,hld,8.52
2022-01-28T02:43:00,hld,8.54
2022-01-28T02:44:00,hld,8.62
2022-01-28T02:45:00,hld,8.66
2022-01-28T02:46:00,hld,8.68
2022-01-28T02:47:00,hld,8.70
2022-01-28T02:48:00,hld,8.69
2022-01-28T02:49:00,hld,8.66
2022-01-28T02:50:00,hld,8.66
2022-01-28T02:51:00,hld,8.69
2022-01-28T02:52:00,hld,8.68
2022-01-28T02:53:00,hld,8.69
2022-01-28T02:54:00,hld,8.91
2022-01-28T02:55:00,hld,8.70
2022-01-28T02:56:00,hld,8.23
2022-01-28T02:57:00,hld,8.57
2022-01-28T02:58:00,hld,7.95
2022-01-28T02:59:00,hld,7.97
2022-01-28T03:00:00,hld,7.98
2022-01-28T03:01:00,hld,8.06
2022-01-28T03:02:00,hld,8.39
2022-01-28T03:03:00,hld,8.06
2022-01-28T03:04:00,hld,8.03
2022-01-28T03:05:00,hld,9.19
2022-01-28T03:06:00,hld,8.09
2022-01-28T03:07:00,hld,8.10
2022-01-28T03:08:00,hld,8.01
2022-01-28T03:09:00,hld,7.91
2022-01-28T03:10:00,hld,8.39
2022-01-28T03:11:00,hld,7.79
2022-01-28T03:12:00,hld,7.82
2022-01-28T03:13:00,hld,7.76
2022-01-28T03:14:00,hld,7.78
2022-01-28T03:15:00,hld,7.78
2022-01-28T03:16:00,hld,7.91
2022-01-28T03:17:00,hld,7.92
2022-01-28T03:18:00,hld,7.90
2022-01-28T03:19:00,hld,7.94
2022-01-28T03:20:00,hld,7.87
2022-01-28T03:21:00,hld,8.39
2022-01-28T03:22:00,hld,8.37
2022-01-28T03:23:00,hld,8.39
2022-01-28T03:24:00,hld,8.42
2022-01-28T03:25:00,hld,8.27
2022-01-28T03:26:00,hld,8.27
2022-01-28T03:27:00,hld,8.25
2022-01-28T03:28:00,hld,8.28
2022-01-28T03:29:00,hld,8.27
2022-01-28T03:30:00,hld,8.28
2022-01-28T03:31:00,hld,8.35
2022-01-28T03:32:00,hld,8.33
2022-01-28T03:33:00,hld,8.35
2022-01-28T03:34:00,hld,8.36
2022-01-28T03:35:00,hld,7.93
2022-01-28T03:36:00,hld,7.76
2022-01-28T03:37:00,hld,7.79
2022-01-28T03:38:00,hld,7.73
2022-01-28T03:39:00,hld,7.73
2022-01-28T03:40:00,hld,7.65
2022-01-28T03:41:00,hld,7.72
2022-01-28T03:42:00,hld,7.71
2022-01-28T03:43:00,hld,7.85
2022-01-28T03:44:00,hld,7.84
2022-01-28T03:45:00,hld,7.83
2022-01-28T03:46:00,hld,7.83
2022-01-28T03:47:00,hld,7.82
2022-01-28T03:48:00,hld,7.84
2022-01-28T03:49:00,hld,8.40
2022-01-28T03:50:00,hld,7.99
2022-01-28T03:51:00,hld,7.82
2022-01-28T03:52:00,hld,8.24
2022-01-28T03:53:00,hld,10.15
2022-01-28T03:54:00,hld,7.93
2022-01-28T03:55:00,hld,7.87
2022-01-28T03:56:00,hld,7.86
2022-01-28T03:57:00,hld,7.79
2022-01-28T03:58:00,hld,7.80
2022-01-28T03:59:00,hld,7.94
2022-01-28T04:00:00,hld,7.81
2022-01-28T04:01:00,hld,7.86
2022-01-28T04:02:00,hld,7.86
2022-01-28T04:03:00,hld,7.86
2022-01-28T04:04:00,hld,7.86
2022-01-28T04:05:00,hld,7.88
2022-01-28T04:06:00,hld,8.30
2022-01-28T04:07:00,hld,8.29
2022-01-28T04:08:00,hld,8.34
2022-01-28T04:09:00,hld,8.34
2022-01-28T04:10:00,hld,8.31
2022-01-28T04:11:00,hld,8.33
2022-01-28T04:12:00,hld,8.37
2022-01-28T04:13:00,hld,8.30
2022-01-28T04:14:00,hld,8.28
2022-01-28T04:15:00,hld,8.28
2022-01-28T04:16:00,hld,9.00
2022-01-28T04:17:00,hld,8.18
2022-01-28T04:18:00,hld,8.18
2022-01-28T04:19:00,hld,8.19
2022-01-28T04:20:00,hld,8.19
2022-01-28T04:21:00,hld,8.19
2022-01-28T04:22:00,hld,8.16
2022-01-28T04:23:00,hld,8.18
2022-01-28T04:24:00,hld,8.15
2022-01-28T04:25:00,hld,8.26
2022-01-28T04:26:00,hld,8.33
2022-01-28T04:27:00,hld,8.40
2022-01-28T04:28:00,hld,8.47
2022-01-28T04:29:00,hld,8.55
2022-01-28T04:30:00,hld,8.96
2022-01-28T04:31:00,hld,9.02
2022-01-28T04:32:00,hld,9.07
2022-01-28T04:33:00,hld,9.24
2022-01-28T04:34:00,hld,9.20
2022-01-28T04:35:00,hld,9.14
2022-01-28T04:36:00,hld,9.15
2022-01-28T04:37:00,hld,9.23
2022-01-28T04:38:00,hld,9.18
2022-01-28T04:39:00,hld,9.14
2022-01-28T04:40:00,hld,9.16
2022-01-28T04:41:00,hld,10.58
2022-01-28T04:42:00,hld,8.67
2022-01-28T04:43:00,hld,8.66
2022-01-28T04:44:00,hld,8.71
2022-01-28T04:45:00,hld,8.58
2022-01-28T04:46:00,hld,8.57
2022-01-28T04:47:00,hld,8.54
2022-01-28T04:48:00,hld,8.54
2022-01-28T04:49:00,hld,8.52
2022-01-28T04:50:00,hld,8.52
2022-01-28T04:51:00,hld,8.56
2022-01-28T04:52:00,hld,8.56
2022-01-28T04:53:00,hld,8.54
2022-01-28T04:54:00,hld,8.71
2022-01-28T04:55:00,hld,8.72
2022-01-28T04:56:00,hld,8.75
2022-01-28T04:57:00,hld,8.29
2022-01-28T04:58:00,hld,8.04
2022-01-28T04:59:00,hld,8.12
2022-01-28T05:00:00,hld,8.05
2022-01-28T05:01:00,hld,8.10
2022-01-28T05:02:00,hld,8.08
2022-01-28T05:03:00,hld,8.07
2022-01-28T05:04:00,hld,8.00
2022-01-28T05:05:00,hld,8.04
2022-01-28T05:06:00,hld,8.04
2022-01-28T05:07:00,hld,7.93
2022-01-28T05:08:00,hld,7.92
2022-01-28T05:09:00,hld,7.81
2022-01-28T05:10:00,hld,7.81
2022-01-28T05:11:00,hld,7.83
2022-01-28T05:12:00,hld,7.77
2022-01-28T05:13:00,hld,7.75
2022-01-28T05:14:00,hld,7.72
2022-01-28T05:15:00,hld,7.76
2022-01-28T05:16:00,hld,7.80
2022-01-28T05:17:00,hld,8.69
2022-01-28T05:18:00,hld,7.99
2022-01-28T05:19:00,hld,7.96
2022-01-28T05:20:00,hld,9.39
2022-01-28T05:21:00,hld,7.90
2022-01-28T05:22:00,hld,7.92
2022-01-28T05:23:00,hld,7.92
2022-01-28T05:24:00,hld,7.96
2022-01-28T05:25:00,hld,7.97
2022-01-28T05:26:00,hld,7.96
2022-01-28T05:27:00,hld,7.97
2022-01-28T05:28:00,hld,7.92
2022-01-28T05:29:00,hld,7.92
2022-01-28T05:30:00,hld,8.61
2022-01-28T05:31:00,hld,7.80
2022-01-28T05:32:00,hld,7.76
2022-01-28T05:33:00,hld,7.81
2022-01-28T05:34:00,hld,7.84
2022-01-28T05:35:00,hld,7.74
2022-01-28T05:36:00,hld,7.75
2022-01-28T05:37:00,hld,7.75
2022-01-28T05:38:00,hld,7.80
2022-01-28T05:39:00,hld,7.80
2022-01-28T05:40:00,hld,7.81
2022-01-28T05:41:00,hld,7.97
2022-01-28T05:42:00,hld,7.91
2022-01-28T05:43:00,hld,7.90
2022-01-28T05:44:00,hld,7.91
2022-01-28T05:45:00,hld,7.90
2022-01-28T05:46:00,hld,7.95
2022-01-28T05:47:00,hld,8.12
2022-01-28T05:48:00,hld,8.11
2022-01-28T05:49:00,hld,8.03
2022-01-28T05:50:00,hld,8.02
2022-01-28T05:51:00,hld,8.03
2022-01-28T05:52:00,hld,8.08
2022-01-28T05:53:00,hld,8.08
2022-01-28T05:54:00,hld,8.08
2022-01-28T05:55:00,hld,9.21
2022-01-28T05:56:00,hld,7.72
2022-01-28T05:57:00,hld,8.19
2022-01-28T05:58:00,hld,7.75
2022-01-28T05:59:00,hld,7.76
2022-01-28T06:00:00,hld,7.81
2022-01-28T06:01:00,hld,7.79
2022-01-28T06:02:00,hld,11.84
2022-01-28T06:03:00,hld,13.23
2022-01-28T06:04:00,hld,14.58
2022-01-28T06:05:00,hld,14.53
2022-01-28T06:06:00,hld,14.69
2022-01-28T06:07:00,hld,14.80
2022-01-28T06:08:00,hld,14.80
2022-01-28T06:09:00,hld,14.91
2022-01-28T06:10:00,hld,14.77
2022-01-28T06:11:00,hld,10.72
2022-01-28T06:12:00,hld,10.77
2022-01-28T06:13:00,hld,10.71
2022-01-28T06:14:00,hld,11.34
2022-01-28T06:15:00,hld,10.69
2022-01-28T06:16:00,hld,10.70
2022-01-28T06:17:00,hld,10.71
2022-01-28T06:18:00,hld,10.56
2022-01-28T06:19:00,hld,10.58
2022-01-28T06:20:00,hld,10.56
2022-01-28T06:21:00,hld,10.49
2022-01-28T06:22:00,hld,10.48
2022-01-28T06:23:00,hld,10.51
2022-01-28T06:24:00,hld,10.49
2022-01-28T06:25:00,hld,10.50
2022-01-28T06:26:00,hld,10.50
2022-01-28T06:27:00,hld,10.50
2022-01-28T06:28:00,hld,10.49
2022-01-28T06:29:00,hld,10.51
2022-01-28T06:30:00,hld,10.47
2022-01-28T06:31:00,hld,10.64
2022-01-28T06:32:00,hld,10.99
2022-01-28T06:33:00,hld,10.61
2022-01-28T06:34:00,hld,10.62
2022-01-28T06:35:00,hld,10.51
2022-01-28T06:36:00,hld,10.59
2022-01-28T06:37:00,hld,10.56
2022-01-28T06:38:00,hld,10.58
2022-01-28T06:39:00,hld,10.57
2022-01-28T06:40:00,hld,10.57
2022-01-28T06:41:00,hld,10.63
2022-01-28T06:42:00,hld,10.63
2022-01-28T06:43:00,hld,10.46
2022-01-28T06:44:00,hld,10.46
2022-01-28T06:45:00,hld,10.48
2022-01-28T06:46:00,hld,10.49
2022-01-28T06:47:00,hld,10.48
2022-01-28T06:48:00,hld,10.43
2022-01-28T06:49:00,hld,10.46
2022-01-28T06:50:00,hld,10.46
2022-01-28T06:51:00,hld,10.47
2022-01-28T06:52:00,hld,10.49
2022-01-28T06:53:00,hld,10.52
2022-01-28T06:54:00,hld,10.69
2022-01-28T06:55:00,hld,10.80
2022-01-28T06:56:00,hld,10.80
2022-01-28T06:57:00,hld,10.70
2022-01-28T06:58:00,hld,10.71
2022-01-28T06:59:00,hld,10.66
2022-01-28T07:00:00,hld,10.64
2022-01-28T07:01:00,hld,10.66
2022-01-28T07:02:00,hld,10.67
2022-01-28T07:03:00,hld,10.64
2022-01-28T07:04:00,hld,10.67
2022-01-28T07:05:00,hld,10.52
2022-01-28T07:06:00,hld,10.53
2022-01-28T07:07:00,hld,10.36
2022-01-28T07:08:00,hld,10.85
2022-01-28T07:09:00,hld,10.36
2022-01-28T07:10:00,hld,10.36
2022-01-28T07:11:00,hld,10.36
2022-01-28T07:12:00,hld,10.36
2022-01-28T07:13:00,hld,10.13
2022-01-28T07:14:00,hld,10.32
2022-01-28T07:15:00,hld,10.30
2022-01-28T07:16:00,hld,10.28
2022-01-28T07:17:00,hld,10.42
2022-01-28T07:18:00,hld,10.45
2022-01-28T07:19:00,hld,10.45
2022-01-28T07:20:00,hld,10.74
2022-01-28T07:21:00,hld,10.39
2022-01-28T07:22:00,hld,10.37
2022-01-28T07:23:00,hld,10.39
2022-01-28T07:24:00,hld,10.40
2022-01-28T07:25:00,hld,10.33
2022-01-28T07:26:00,hld,10.21
2022-01-28T07:27:00,hld,10.20
2022-01-28T07:28:00,hld,10.23
2022-01-28T07:29:00,hld,10.05
2022-01-28T07:30:00,hld,10.05
2022-01-28T07:31:00,hld,10.08
2022-01-28T07:32:00,hld,10.12
2022-01-28T07:33:00,hld,10.08
2022-01-28T07:34:00,hld,10.15
2022-01-28T07:35:00,hld,10.12
2022-01-28T07:36:00,hld,10.11
2022-01-28T07:37:00,hld,10.10
2022-01-28T07:38:00,hld,10.13
2022-01-28T07:39:00,hld,10.33
2022-01-28T07:40:00,hld,10.38
2022-01-28T07:41:00,hld,10.41
2022-01-28T07:42:00,hld,10.44
2022-01-28T07:43:00,hld,10.39
2022-01-28T07:44:00,hld,10.89
2022-01-28T07:45:00,hld,10.69
2022-01-28T07:46:00,hld,10.41
2022-01-28T07:47:00,hld,10.40
2022-01-28T07:48:00,hld,10.38
2022-01-28T07:49:00,hld,10.35
2022-01-28T07:50:00,hld,10.33
2022-01-28T07:51:00,hld,10.29
2022-01-28T07:52:00,hld,10.17
2022-01-28T07:53:00,hld,10.18
2022-01-28T07:54:00,hld,10.17
2022-01-28T07:55:00,hld,10.16
2022-01-28T07:56:00,hld,10.16
2022-01-28T07:57:00,hld,10.14
2022-01-28T07:58:00,hld,10.16
2022-01-28T07:59:00,hld,10.17
2022-01-28T08:00:00,hld,10.16
2022-01-28T08:01:00,hld,10.18
2022-01-28T08:02:00,hld,10.26
2022-01-28T08:03:00,hld,10.27
2022-01-28T08:04:00,hld,10.41
2022-01-28T08:05:00,hld,10.43
2022-01-28T08:06:00,hld,10.43
2022-01-28T08:07:00,hld,14.86
2022-01-28T08:08:00,hld,14.91
2022-01-28T08:09:00,hld,14.94
2022-01-28T08:10:00,hld,14.97
2022-01-28T08:11:00,hld,14.99
2022-01-28T08:12:00,hld,14.97
2022-01-28T08:13:00,hld,15.04
2022-01-28T08:14:00,hld,15.08
2022-01-28T08:15:00,hld,10.92
2022-01-28T08:16:00,hld,11.53
2022-01-28T08:17:00,hld,10.79
2022-01-28T08:18:00,hld,10.69
2022-01-28T08:19:00,hld,10.64
2022-01-28T08:20:00,hld,10.65
2022-01-28T08:21:00,hld,10.65
2022-01-28T08:22:00,hld,10.65
2022-01-28T08:23:00,hld,10.65
2022-01-28T08:24:00,hld,10.64
2022-01-28T08:25:00,hld,10.62
2022-01-28T08:26:00,hld,10.80
2022-01-28T08:27:00,hld,10.81
2022-01-28T08:28:00,hld,10.84
2022-01-28T08:29:00,hld,10.85
2022-01-28T08:30:00,hld,10.79
2022-01-28T08:31:00,hld,10.95
2022-01-28T08:32:00,hld,11.00
2022-01-28T08:33:00,hld,10.56
2022-01-28T08:34:00,hld,10.58
2022-01-28T08:35:00,hld,10.10
2022-01-28T08:36:00,hld,10.10
2022-01-28T08:37:00,hld,10.07
2022-01-28T08:38:00,hld,10.13
2022-01-28T08:39:00,hld,10.04
2022-01-28T08:40:00,hld,10.03
2022-01-28T08:41:00,hld,9.91
2022-01-28T08:42:00,hld,10.67
2022-01-28T08:43:00,hld,10.69
2022-01-28T08:44:00,hld,10.76
2022-01-28T08:45:00,hld,10.88
2022-01-28T08:46:00,hld,10.84
2022-01-28T08:47:00,hld,11.09
2022-01-28T08:48:00,hld,11.11
2022-01-28T08:49:00,hld,11.52
2022-01-28T08:50:00,hld,11.18
2022-01-28T08:51:00,hld,11.34
2022-01-28T08:52:00,hld,12.01
2022-01-28T08:53:00,hld,11.86
2022-01-28T08:54:00,hld,11.25
2022-01-28T08:55:00,hld,11.52
2022-01-28T08:56:00,hld,11.19
2022-01-28T08:57:00,hld,11.17
2022-01-28T08:58:00,hld,11.23
2022-01-28T08:59:00,hld,11.24
2022-01-28T09:00:00,hld,11.24
2022-01-28T09:01:00,hld,11.03
2022-01-28T09:02:00,hld,11.02
2022-01-28T09:03:00,hld,10.88
2022-01-28T09:04:00,hld,10.89
2022-01-28T09:05:00,hld,10.88
2022-01-28T09:06:00,hld,10.89
2022-01-28T09:07:00,hld,10.88
2022-01-28T09:08:00,hld,10.87
2022-01-28T09:09:00,hld,10.90
2022-01-28T09:10:00,hld,10.84
2022-01-28T09:11:00,hld,10.82
2022-01-28T09:12:00,hld,10.85
2022-01-28T09:13:00,hld,10.86
2022-01-28T09:14:00,hld,10.84
2022-01-28T09:15:00,hld,11.01
2022-01-28T09:16:00,hld,11.67
2022-01-28T09:17:00,hld,11.04
2022-01-28T09:18:00,hld,10.69
2022-01-28T09:19:00,hld,10.67
2022-01-28T09:20:00,hld,11.72
2022-01-28T09:21:00,hld,11.12
2022-01-28T09:22:00,hld,11.15
2022-01-28T09:23:00,hld,11.18
2022-01-28T09:24:00,hld,13.95
2022-01-28T09:25:00,hld,10.57
2022-01-28T09:26:00,hld,10.60
2022-01-28T09:27:00,hld,10.60
2022-01-28T09:28:00,hld,10.67
2022-01-28T09:29:00,hld,10.67
2022-01-28T09:30:00,hld,10.65
2022-01-28T09:31:00,hld,10.50
2022-01-28T09:32:00,hld,10.48
2022-01-28T09:33:00,hld,10.57
2022-01-28T09:34:00,hld,10.48
2022-01-28T09:35:00,hld,10.47
2022-01-28T09:36:00,hld,11.08
2022-01-28T09:37:00,hld,10.38
2022-01-28T09:38:00,hld,10.47
2022-01-28T09:39:00,hld,10.44
2022-01-28T09:40:00,hld,10.63
2022-01-28T09:41:00,hld,10.55
2022-01-28T09:42:00,hld,10.59
2022-01-28T09:43:00,hld,10.51
2022-01-28T09:44:00,hld,10.44
2022-01-28T09:45:00,hld,10.44
2022-01-28T09:46:00,hld,10.44
2022-01-28T09:47:00,hld,10.46
2022-01-28T09:48:00,hld,11.14
2022-01-28T09:49:00,hld,11.12
2022-01-28T09:50:00,hld,10.42
2022-01-28T09:51:00,hld,10.44
2022-01-28T09:52:00,hld,10.31
2022-01-28T09:53:00,hld,10.47
2022-01-28T09:54:00,hld,10.48
2022-01-28T09:55:00,hld,10.50
2022-01-28T09:56:00,hld,10.48
2022-01-28T09:57:00,hld,10.50
2022-01-28T09:58:00,hld,10.44
2022-01-28T09:59:00,hld,10.45
2022-01-28T10:00:00,hld,10.42
2022-01-28T10:01:00,hld,10.42
2022-01-28T10:02:00,hld,10.44
2022-01-28T10:03:00,hld,10.39
2022-01-28T10:04:00,hld,10.55
2022-01-28T10:05:00,hld,10.56
2022-01-28T10:06:00,hld,10.57
2022-01-28T10:07:00,hld,10.56
2022-01-28T10:08:00,hld,10.62
2022-01-28T10:09:00,hld,10.78
2022-01-28T10:10:00,hld,10.61
2022-01-28T10:11:00,hld,10.74
2022-01-28T10:12:00,hld,10.75
2022-01-28T10:13:00,hld,14.76
2022-01-28T10:14:00,hld,14.73
2022-01-28T10:15:00,hld,14.72
2022-01-28T10:16:00,hld,14.61
2022-01-28T10:17:00,hld,14.61
2022-01-28T10:18:00,hld,14.59
2022-01-28T10:19:00,hld,14.76
2022-01-28T10:20:00,hld,14.53
2022-01-28T10:21:00,hld,10.60
2022-01-28T10:22:00,hld,11.60
2022-01-28T10:23:00,hld,10.44
2022-01-28T10:24:00,hld,10.43
2022-01-28T10:25:00,hld,10.46
2022-01-28T10:26:00,hld,10.61
2022-01-28T10:27:00,hld,10.62
2022-01-28T10:28:00,hld,10.60
2022-01-28T10:29:00,hld,10.62
2022-01-28T10:30:00,hld,10.63
2022-01-28T10:31:00,hld,10.65
2022-01-28T10:32:00,hld,10.84
2022-01-28T10:33:00,hld,10.90
2022-01-28T10:34:00,hld,10.82
2022-01-28T10:35:00,hld,10.79
2022-01-28T10:36:00,hld,10.79
2022-01-28T10:37:00,hld,11.77
2022-01-28T10:38:00,hld,11.16
2022-01-28T10:39:00,hld,10.80
2022-01-28T10:40:00,hld,11.28
2022-01-28T10:41:00,hld,10.63
2022-01-28T10:42:00,hld,10.65
2022-01-28T10:43:00,hld,10.63
2022-01-28T10:44:00,hld,10.60
2022-01-28T10:45:00,hld,10.47
2022-01-28T10:46:00,hld,10.42
2022-01-28T10:47:00,hld,10.47
2022-01-28T10:48:00,hld,10.45
2022-01-28T10:49:00,hld,10.44
2022-01-28T10:50:00,hld,10.42
2022-01-28T10:51:00,hld,10.49
2022-01-28T10:52:00,hld,10.45
2022-01-28T10:53:00,hld,10.66
2022-01-28T10:54:00,hld,10.63
2022-01-28T10:55:00,hld,10.65
2022-01-28T10:56:00,hld,10.80
2022-01-28T10:57:00,hld,10.66
2022-01-28T10:58:00,hld,10.65
2022-01-28T10:59:00,hld,10.66
2022-01-28T11:00:00,hld,10.65
2022-01-28T11:01:00,hld,10.71
2022-01-28T11:02:00,hld,10.69
2022-01-28T11:03:00,hld,10.64
2022-01-28T11:04:00,hld,10.66
2022-01-28T11:05:00,hld,10.64
2022-01-28T11:06:00,hld,10.74
2022-01-28T11:07:00,hld,10.66
2022-01-28T11:08:00,hld,10.67
2022-01-28T11:09:00,hld,10.68
2022-01-28T11:10:00,hld,10.69
2022-01-28T11:11:00,hld,10.46
2022-01-28T11:12:00,hld,10.45
2022-01-28T11:13:00,hld,10.26
2022-01-28T11:14:00,hld,10.22
2022-01-28T11:15:00,hld,10.22
2022-01-28T11:16:00,hld,10.43
2022-01-28T11:17:00,hld,10.50
2022-01-28T11:18:00,hld,10.52
2022-01-28T11:19:00,hld,11.21
2022-01-28T11:20:00,hld,10.75
2022-01-28T11:21:00,hld,10.78
2022-01-28T11:22:00,hld,10.77
2022-01-28T11:23:00,hld,10.93
2022-01-28T11:24:00,hld,11.09
2022-01-28T11:25:00,hld,11.04
2022-01-28T11:26:00,hld,11.05
2022-01-28T11:27:00,hld,11.09
2022-01-28T11:28:00,hld,11.07
2022-01-28T11:29:00,hld,11.57
2022-01-28T11:30:00,hld,11.56
2022-01-28T11:31:00,hld,11.57
2022-01-28T11:32:00,hld,11.78
2022-01-28T11:33:00,hld,11.77
2022-01-28T11:34:00,hld,11.82
2022-01-28T11:35:00,hld,11.88
2022-01-28T11:36:00,hld,11.78
2022-01-28T11:37:00,hld,11.76
2022-01-28T11:38:00,hld,11.78
2022-01-28T11:39:00,hld,12.13
2022-01-28T11:40:00,hld,12.61
2022-01-28T11:41:00,hld,12.02
2022-01-28T11:42:00,hld,11.58
2022-01-28T11:43:00,hld,11.64
2022-01-28T11:44:00,hld,12.21
2022-01-28T11:45:00,hld,11.61
2022-01-28T11:46:00,hld,11.58
2022-01-28T11:47:00,hld,11.58
2022-01-28T11:48:00,hld,11.54
2022-01-28T11:49:00,hld,11.54
2022-01-28T11:50:00,hld,11.70
2022-01-28T11:51:00,hld,11.68
2022-01-28T11:52:00,hld,11.84
2022-01-28T11:53:00,hld,11.79
2022-01-28T11:54:00,hld,13.33
2022-01-28T11:55:00,hld,11.81
2022-01-28T11:56:00,hld,11.85
2022-01-28T11:57:00,hld,11.90
2022-01-28T11:58:00,hld,11.65
2022-01-28T11:59:00,hld,11.50
2022-01-28T12:00:00,hld,11.52
2022-01-28T12:01:00,hld,11.35
2022-01-28T12:02:00,hld,11.36
2022-01-28T12:03:00,hld,11.40
2022-01-28T12:04:00,hld,11.39
2022-01-28T12:05:00,hld,11.36
2022-01-28T12:06:00,hld,12.10
2022-01-28T12:07:00,hld,11.36
2022-01-28T12:08:00,hld,11.38
2022-01-28T12:09:00,hld,11.38
2022-01-28T12:10:00,hld,11.36
2022-01-28T12:11:00,hld,11.36
2022-01-28T12:12:00,hld,11.38
2022-01-28T12:13:00,hld,11.32
2022-01-28T12:14:00,hld,11.32
2022-01-28T12:15:00,hld,15.33
2022-01-28T12:16:00,hld,15.34
2022-01-28T12:17:00,hld,15.34
2022-01-28T12:18:00,hld,15.33
2022-01-28T12:19:00,hld,15.34
2022-01-28T12:20:00,hld,15.53
2022-01-28T12:21:00,hld,15.53
2022-01-28T12:22:00,hld,15.54
2022-01-28T12:23:00,hld,11.64
2022-01-28T12:24:00,hld,11.74
2022-01-28T12:25:00,hld,11.75
2022-01-28T12:26:00,hld,11.78
2022-01-28T12:27:00,hld,13.45
2022-01-28T12:28:00,hld,13.44
2022-01-28T12:29:00,hld,14.90
2022-01-28T12:30:00,hld,11.89
2022-01-28T12:31:00,hld,11.86
2022-01-28T12:32:00,hld,11.84
2022-01-28T12:33:00,hld,11.93
2022-01-28T12:34:00,hld,11.94
2022-01-28T12:35:00,hld,11.91
2022-01-28T12:36:00,hld,12.57
2022-01-28T12:37:00,hld,11.90
2022-01-28T12:38:00,hld,11.87
2022-01-28T12:39:00,hld,11.91
2022-01-28T12:40:00,hld,11.91
2022-01-28T12:41:00,hld,11.89
2022-01-28T12:42:00,hld,11.89
2022-01-28T12:43:00,hld,11.89
2022-01-28T12:44:00,hld,11.72
2022-01-28T12:45:00,hld,11.74
2022-01-28T12:46:00,hld,12.43
2022-01-28T12:47:00,hld,11.75
2022-01-28T12:48:00,hld,11.70
2022-01-28T12:49:00,hld,12.37
2022-01-28T12:50:00,hld,11.73
2022-01-28T12:51:00,hld,11.60
2022-01-28T12:52:00,hld,11.68
2022-01-28T12:53:00,hld,11.68
2022-01-28T12:54:00,hld,11.70
2022-01-28T12:55:00,hld,11.66
2022-01-28T12:56:00,hld,11.56
2022-01-28T12:57:00,hld,11.59
2022-01-28T12:58:00,hld,11.77
2022-01-28T12:59:00,hld,11.73
2022-01-28T13:00:00,hld,11.75
2022-01-28T13:01:00,hld,11.75
2022-01-28T13:02:00,hld,11.78
2022-01-28T13:03:00,hld,11.74
2022-01-28T13:04:00,hld,11.73
2022-01-28T13:05:00,hld,11.73
2022-01-28T13:06:00,hld,13.24
2022-01-28T13:07:00,hld,11.73
2022-01-28T13:08:00,hld,11.73
2022-01-28T13:09:00,hld,11.76
2022-01-28T13:10:00,hld,11.76
2022-01-28T13:11:00,hld,11.71
2022-01-28T13:12:00,hld,11.74
2022-01-28T13:13:00,hld,11.71
2022-01-28T13:14:00,hld,11.75
2022-01-28T13:15:00,hld,11.78
2022-01-28T13:16:00,hld,12.09
2022-01-28T13:17:00,hld,12.15
2022-01-28T13:18:00,hld,11.56
2022-01-28T13:19:00,hld,11.58
2022-01-28T13:20:00,hld,11.55
2022-01-28T13:21:00,hld,11.60
2022-01-28T13:22:00,hld,11.63
2022-01-28T13:23:00,hld,11.64
2022-01-28T13:24:00,hld,11.63
2022-01-28T13:25:00,hld,11.17
2022-01-28T13:26:00,hld,11.49
2022-01-28T13:27:00,hld,11.75
2022-01-28T13:28:00,hld,11.62
2022-01-28T13:29:00,hld,11.66